Theta_e
313 316 317 317 319 321 323 325 325 327 328 329 330 330 330 331 329 331 330 328 328 329 331 329 327 327 329 331 331 334 336 338 342 345 345 345 343 338 334 332 333 333 334 334
314 317 319 317 317 318 319 322 324 326 326 328 329 330 331 331 331 330 331 330 329 329 328 329 328 328 334 332 332 333 337 339 341 345 344 343 339 335 333 332 333 333 334 332
315 316 316 318 318 318 320 321 324 324 325 326 328 329 330 330 330 329 328 328 328 328 327 327 328 329 334 333 333 336 339 340 342 343 343 339 335 334 333 333 334 333 332 331
314 315 315 318 319 319 321 320 321 322 324 327 326 329 331 331 330 329 329 328 329 328 328 328 329 335 335 335 335 338 339 341 341 342 338 335 333 333 333 332 331 334 335 334
310 314 316 316 318 319 320 320 321 322 323 326 325 328 328 329 328 328 329 328 328 328 328 329 329 336 337 337 337 339 340 340 340 336 334 333 333 332 333 333 331 330 330 331
310 310 313 316 316 318 320 320 320 322 324 326 326 327 328 328 328 328 330 329 329 329 328 328 335 338 338 338 339 340 339 338 336 334 335 333 331 333 332 331 332 333 332 329
313 311 312 313 316 317 319 323 323 324 324 326 325 326 328 328 328 329 331 330 329 328 329 336 338 338 338 338 339 339 337 337 334 335 333 335 333 332 332 333 333 331 331 329
317 319 312 313 315 318 319 323 323 323 324 325 324 327 327 328 329 329 327 328 328 331 336 338 337 337 337 338 339 338 338 336 335 334 332 334 334 331 334 332 332 332 332 328
315 317 316 313 315 317 319 319 322 324 324 324 326 327 328 329 329 330 327 328 332 333 336 337 336 336 337 338 337 337 337 336 334 333 334 334 333 334 332 331 327 330 328 327
312 314 314 317 314 315 318 320 321 324 325 328 327 328 329 331 332 330 329 332 335 336 336 336 336 337 337 337 337 336 335 334 334 332 334 333 333 334 332 332 331 329 328 331
311 313 313 315 318 314 318 319 321 324 324 327 328 328 335 333 331 331 332 330 336 336 336 336 336 336 337 336 336 336 335 334 332 333 333 333 330 331 333 331 331 328 328 328
313 314 317 316 319 315 318 319 321 324 326 326 327 329 332 333 330 333 333 333 336 336 335 335 336 336 336 336 336 335 334 332 333 332 332 331 334 332 332 331 329 327 328 328
313 317 318 318 319 321 319 320 322 325 328 328 327 329 330 329 332 331 335 336 336 335 335 335 335 336 336 336 336 334 331 330 331 332 332 331 332 331 331 330 329 329 329 328
311 314 316 320 321 322 323 319 321 325 326 327 328 329 330 330 331 333 337 337 336 335 335 335 335 335 335 336 335 331 329 330 330 331 332 330 331 331 330 329 328 328 329 328
312 316 316 314 316 320 322 323 320 323 325 327 327 328 328 332 332 336 336 335 335 334 334 335 335 335 335 335 332 329 329 329 330 331 332 331 330 330 330 329 329 329 328 329
313 316 315 316 314 316 320 322 323 322 324 326 327 329 331 332 332 334 335 334 334 334 334 334 334 335 335 333 330 328 329 329 330 332 332 330 331 331 330 329 329 328 328 328
312 315 317 317 314 317 322 323 323 323 325 327 328 330 332 330 331 334 334 334 334 334 333 334 334 334 334 332 329 328 328 328 329 334 331 332 332 332 330 329 329 328 328 329
311 313 317 320 319 321 322 323 323 323 326 327 327 330 330 329 328 329 330 332 334 333 334 334 334 334 333 331 328 328 328 328 329 333 331 332 332 331 331 330 330 330 329 328
311 312 317 321 321 320 323 326 326 326 328 327 328 327 327 326 330 331 330 329 331 334 334 334 334 334 333 330 328 327 328 327 330 332 332 332 332 330 331 330 330 330 330 330
312 313 317 319 320 332 326 323 323 325 330 326 327 328 328 327 330 331 329 329 330 332 335 334 334 335 333 329 327 326 327 327 329 331 332 332 331 332 333 333 331 331 329 330
315 317 318 317 320 320 320 318 322 329 329 325 325 326 326 329 328 327 328 329 329 332 335 335 334 335 333 329 327 326 327 326 328 331 332 332 331 332 331 331 331 333 332 329
317 319 318 319 320 323 314 319 324 321 323 323 323 324 325 326 327 328 328 329 330 331 335 335 335 336 333 329 327 326 327 326 328 330 332 332 332 332 333 331 332 333 331 330
316 315 316 318 315 311 315 316 316 318 321 321 321 322 324 326 327 329 330 330 331 331 333 336 336 336 333 330 327 327 327 325 327 329 332 333 331 334 332 331 333 331 329 329
312 311 314 316 313 313 315 315 315 317 318 319 320 322 322 324 326 328 331 332 332 333 332 335 336 336 334 330 328 327 327 325 327 328 332 334 331 335 333 331 333 332 332 331
312 312 313 313 312 314 314 314 314 316 317 318 320 321 322 323 324 326 329 332 335 334 334 334 336 337 336 331 329 327 327 326 326 327 331 333 332 334 332 331 330 330 331 333
312 312 314 314 312 313 313 313 314 316 317 318 318 321 322 322 323 325 326 328 332 335 335 333 334 337 336 333 330 327 327 326 326 327 330 332 333 333 332 332 328 328 328 329
Wind_Speed
28 17 25 43 30 30 28 32 32 29 28 28 25 27 30 23 27 25 26 24 30 32 28 25 24 26 35 22 23 22 22 25 29 29 22 25 25 24 22 18 17 17 16 15
20 29 39 22 31 33 33 31 31 28 26 24 23 26 26 22 22 25 26 26 28 30 31 29 24 23 24 21 21 24 24 28 30 27 20 23 22 18 17 17 16 17 18 14
24 37 23 29 31 29 32 32 27 30 25 26 23 26 25 24 27 30 27 28 29 31 32 36 31 25 21 18 17 20 24 26 27 24 23 20 19 16 15 15 14 17 16 15
24 26 32 31 33 31 28 28 28 27 23 18 21 20 24 18 21 19 22 29 28 30 35 37 32 22 18 13 12 14 20 24 27 23 24 21 20 16 14 12 13 9 9 8
34 24 27 32 36 29 34 24 26 27 24 21 25 15 23 16 17 16 15 22 24 25 24 24 19 20 16 15 14 18 23 22 25 23 21 22 17 13 8 9 11 12 15 17
29 33 28 29 28 31 26 27 27 25 18 17 26 20 25 18 17 18 19 23 21 25 25 20 19 23 20 16 18 21 21 25 25 23 18 17 14 9 9 10 9 10 13 12
24 26 29 30 28 29 31 21 16 17 16 22 18 20 22 19 19 21 17 18 15 13 19 28 27 24 21 21 22 22 26 24 25 20 19 13 15 13 9 6 6 8 7 6
12 14 27 29 32 26 30 25 15 25 15 20 23 22 19 19 22 20 10 11 8 12 21 24 22 23 24 23 23 23 24 22 22 18 15 12 9 6 6 4 5 4 1 3
9 15 24 29 28 28 26 27 28 22 21 16 16 20 29 23 18 13 7 13 11 15 20 20 22 24 25 25 25 25 22 21 19 16 15 12 9 8 7 7 4 1 4 4
7 17 21 25 27 33 28 22 25 17 23 21 20 19 9 14 18 12 9 12 20 21 21 22 24 26 26 25 25 22 21 20 18 15 14 11 8 7 3 2 2 5 9 8
13 12 24 21 24 28 24 23 26 18 19 16 14 13 7 9 7 11 12 18 25 23 24 26 26 27 26 25 23 23 20 18 17 15 12 13 7 5 6 4 4 5 13 6
16 7 17 23 27 26 29 25 23 15 24 17 14 15 7 8 8 12 15 25 26 26 27 27 27 27 26 24 23 21 19 17 17 13 11 8 9 7 6 7 7 2 10 8
6 7 9 21 18 21 26 28 25 21 13 19 17 14 6 8 13 13 17 25 26 27 28 28 28 27 25 24 22 21 18 17 15 14 11 10 8 6 7 8 10 6 7 7
3 7 16 11 9 16 13 29 31 24 19 18 19 3 11 13 11 12 20 25 26 27 28 28 27 25 23 22 21 19 17 16 14 14 12 10 7 4 9 7 13 10 7 6
3 7 17 19 10 14 22 27 31 28 24 21 21 10 17 14 12 15 22 24 26 27 26 26 25 24 23 22 21 18 17 16 14 14 13 6 5 7 9 8 12 12 10 8
7 4 18 17 12 15 24 27 23 30 27 27 26 14 12 16 18 16 18 24 23 25 25 24 24 24 24 22 20 19 18 17 15 14 11 3 8 11 7 8 11 12 12 8
12 7 7 12 7 9 17 23 22 26 24 27 18 10 22 14 11 16 19 23 21 23 24 23 23 23 23 22 21 20 19 17 16 15 7 12 13 9 10 10 11 10 11 10
14 11 3 4 10 5 10 14 22 24 23 22 8 13 17 17 20 22 21 17 10 23 22 23 23 23 23 21 21 20 19 18 16 16 12 14 13 12 11 9 8 9 11 12
11 8 4 2 4 15 11 12 12 11 7 19 18 19 17 18 28 20 17 15 13 7 24 23 23 25 23 22 22 21 19 18 17 16 17 14 15 12 12 10 11 8 11 11
10 6 4 1 3 5 8 20 33 16 10 16 15 16 12 7 10 7 14 13 13 11 13 24 24 25 24 24 24 22 20 19 18 16 17 16 13 10 10 10 10 6 8 8
2 2 4 3 1 7 18 29 30 3 3 10 18 16 15 11 9 7 9 9 10 10 2 23 25 25 26 26 25 23 21 20 19 17 17 18 13 11 8 6 9 9 8 6
3 4 1 3 4 5 22 16 9 8 5 13 15 14 13 10 10 9 8 8 8 7 2 23 26 27 27 27 27 24 23 21 19 18 18 19 17 14 10 7 10 10 9 10
4 4 3 5 2 7 19 11 20 19 18 17 16 14 13 12 12 9 7 5 5 5 6 17 25 27 27 28 28 25 24 22 21 20 20 22 16 17 11 12 10 10 11 11
6 14 3 1 5 10 16 19 18 21 22 21 13 14 14 11 10 9 7 4 4 5 9 10 26 27 29 29 27 25 25 23 23 23 22 20 20 19 11 12 16 9 9 10
3 5 8 3 8 10 13 22 20 12 15 15 13 11 9 9 9 10 9 9 5 4 7 12 22 28 29 29 28 27 26 25 25 25 25 23 22 20 17 14 13 11 11 14
5 5 2 1 8 7 10 15 13 11 9 8 8 10 9 9 9 11 11 12 9 8 6 10 14 27 28 28 28 28 27 28 27 28 26 25 23 22 18 20 17 14 14 10
Wind_Direction
225 217 222 220 220 240 236 239 248 254 253 247 256 260 265 276 275 259 249 255 269 265 281 259 263 274 283 238 238 225 224 210 214 211 200 198 205 213 205 219 223 227 237 243
227 220 226 232 227 234 244 254 253 261 261 258 265 261 264 256 255 255 266 247 253 261 275 283 258 265 250 244 246 233 219 206 208 202 203 198 200 219 208 218 228 235 243 258
225 235 227 234 234 234 234 236 247 258 268 270 273 271 267 266 271 273 267 275 274 276 274 274 275 270 233 240 243 227 212 206 195 192 186 191 194 207 203 211 207 239 253 258
247 240 240 227 237 230 240 233 243 248 253 260 258 270 253 258 264 259 257 257 253 249 251 250 252 213 210 219 214 193 181 183 182 183 177 187 188 194 208 227 234 214 227 246
242 242 234 239 237 229 244 243 245 244 250 257 253 260 266 275 272 276 269 260 256 258 258 261 241 187 179 186 176 177 182 178 169 170 183 183 182 198 184 202 244 255 259 265
253 249 256 245 241 247 238 243 248 255 254 246 242 244 267 260 271 277 269 266 260 242 247 243 177 150 155 157 163 174 172 152 174 166 179 181 189 176 185 210 230 253 278 283
246 243 251 250 251 231 240 229 234 236 235 242 243 238 256 269 268 269 276 266 262 251 235 134 140 145 148 152 162 166 151 169 169 167 179 167 196 204 213 199 252 269 285 298
276 270 225 239 241 235 224 233 220 219 216 245 248 251 256 253 254 248 282 237 229 138 114 128 140 146 148 156 159 155 161 163 164 172 167 171 174 160 175 222 243 257 231 213
315 278 261 223 243 239 230 226 236 244 234 251 253 235 239 243 246 239 199 200 144 132 134 140 144 147 152 156 156 160 162 162 165 165 162 167 171 167 209 220 200 238 156 110
280 288 280 286 222 245 243 219 226 223 234 239 235 250 274 200 225 212 206 164 137 133 143 148 149 151 152 155 158 159 163 165 165 167 168 167 167 187 190 160 172 145 127 150
269 260 271 288 266 215 230 235 217 237 227 238 247 269 199 172 143 148 170 162 139 146 151 148 152 152 153 155 158 162 164 165 168 166 170 176 193 191 187 181 181 177 151 154
295 279 258 267 273 217 232 224 230 218 219 236 246 248 89 101 138 164 165 147 140 150 150 154 152 155 155 158 160 163 167 168 167 169 178 184 183 198 188 161 172 128 138 139
344 244 260 258 267 259 229 221 233 237 240 218 235 242 164 170 211 178 126 132 144 152 151 151 155 156 158 160 163 166 168 169 168 170 180 172 198 223 169 165 160 152 136 141
337 259 263 253 314 339 284 211 230 227 211 227 227 194 165 175 144 127 122 136 147 148 152 154 158 159 163 164 168 167 169 169 171 172 178 191 222 167 151 159 154 146 152 153
205 269 288 257 256 304 302 284 224 223 203 222 235 162 210 176 159 121 129 142 145 149 158 157 160 161 165 167 168 170 169 170 173 172 181 195 154 156 152 151 166 154 154 162
219 282 301 281 215 273 288 275 266 220 200 221 240 159 125 98 105 124 145 143 153 155 160 160 165 165 168 170 170 170 169 169 169 173 170 183 143 150 150 154 153 155 159 158
280 302 320 249 197 321 276 236 240 211 204 213 227 162 127 144 119 151 156 152 158 159 158 166 169 169 171 173 174 171 170 167 167 169 161 145 154 153 146 130 143 156 156 164
262 285 270 10 61 266 242 244 251 206 197 209 164 164 141 115 92 59 50 35 110 161 165 165 169 170 170 175 173 171 170 169 168 173 149 155 157 151 151 143 147 147 158 164
227 257 275 206 200 295 324 0 337 261 81 14 40 74 62 86 93 54 29 20 10 3 164 168 170 170 171 175 175 173 170 172 170 166 162 161 164 160 156 163 177 187 190 186
174 222 231 62 255 223 20 350 319 298 100 11 40 51 47 26 120 58 4 353 349 345 169 162 167 168 172 176 175 175 173 178 175 170 168 163 176 165 148 185 180 169 144 156
144 231 263 274 225 294 339 330 309 350 79 39 49 45 39 47 48 5 355 340 336 329 130 160 168 171 175 177 177 177 176 183 178 169 166 161 171 165 171 153 160 144 135 141
333 336 338 241 224 340 324 340 52 310 355 48 53 48 47 33 33 25 353 323 324 319 282 162 166 171 177 180 181 180 180 182 179 171 167 163 160 165 172 157 135 146 127 121
11 22 339 7 31 287 310 15 22 9 32 40 37 35 37 35 25 13 339 317 299 275 239 182 171 173 178 182 186 182 183 182 180 174 170 169 163 174 177 153 153 131 133 126
345 7 23 15 357 325 325 13 21 22 13 12 27 28 30 20 16 7 346 330 274 243 237 211 174 174 177 185 188 185 184 182 182 177 173 169 159 174 165 158 159 166 162 159
8 353 346 1 1 353 360 342 344 11 8 5 11 15 29 10 13 2 357 354 340 246 217 224 188 180 182 187 188 187 185 183 185 180 179 175 174 178 172 171 166 175 191 201
3 13 13 46 295 308 320 312 324 351 349 354 354 357 9 20 8 3 359 351 349 325 246 224 218 184 183 188 190 190 188 186 187 179 181 184 184 184 184 187 183 184 190 211